User: anonymous
Location: Caltech
(34.1382°N, 118.1253°W)
Time: 13:51:58
(UTC-07:00)
Language:

Cosmos 44 Rocket - Orbit

View from above orbital plane
View from above orbital plane
View from above satellite
View from above satellite

Ground track
Ground track

The orbit data is extracted from the following two-line orbital elements,

1 00877U 64053B   14209.79890514  .00000055  00000-0  36563-4 0  6690
2 00877 065.0792 132.4197 0064173 179.6485 180.4670 14.58862728647678
Epoch (UTC): 28 July 2014 19:10:25
Eccentricity: 0.0064173
inclination: 65.0792°
perigee height: 651 km
apogee height: 742 km
right ascension of ascending node: 132.4197°
argument of perigee: 179.6485°
revolutions per day: 14.58862728
mean anomaly at epoch: 180.4670°
orbit number at epoch: 64767

The dashed part of the orbit path shows where the satellite is in the earth's shadow,  

DLR